Location: Newark
(32.9900°N, 111.5400°W)
Time: 01:05:10
(UTC+00:00)

Envisat - Pass Details

Date: 18 November 2019
Orbit: 764 x 766 km, 98.1° (Epoch: 14 December)

Event Time Altitude Azimuth Distance (km) Brightness Sun altitude
Rises 02:47:43 0° 210° (SSW) 3,218 6.7 -30.2°
Reaches altitude 10° 02:51:05 10° 234° (SW) 2,297 6.1 -30.9°
Maximum altitude 02:53:48 15° 267° (W) 2,001 5.9 -31.4°
Drops below altitude 10° 02:56:33 10° 300° (WNW) 2,304 6.1 -32.0°
Sets 02:59:57 0° 324° (NW) 3,235 6.6 -32.7°
